Showing default

OPS 6582 (TRANSIT 5E-5), 959

Orbit data source: Space-Track

OPS 6582 (TRANSIT 5E-5), 959 is a payload satellite owned by USN BuWeps (US) in LEO that was launched on Sun, 13 Dec 1964 UTC via a THOR ABLESTAR launch vehicle from the Air Force Western Test Range (AFWTR). Payload-class satellites include a variety of spacecraft equipped with specific instruments for various scientific and technological missions. These include communications satellites like Starlink; space stations such as the ISS; scientific satellites like the Hubble; Earth observation satellites from companies like Planet Labs, Umbra, and HawkEye 360; GPS; miniature CubeSats for education and research; and military/defense satellites.

Loading next visibility...
Identifier
959, 1964-083C
Orbit
LEO
Country
Flag of USUS
Related business
Manufacturer
APL
Mission
Spacecraft
Bus & Motor
TRANSIT 5, Unknown motor
Mass
77 kg wet, 77 kg dry
Launch date (UTC)
1964-12-13 (61 years ago)
Launch vehicle
THOR ABLESTAR
Launch site
Air Force Western Test Range (AFWTR)
Object type
Payload
Rocket body
Debris
Shape & HBR
Unknown
Radar Cross Section
Large (>1 m²)

Expand to show TLE details & history
Last TLE update: 7 hours ago

TLE from 7 hours ago
0 OPS 6582 (TRANSIT 5E-5)
1 00959U 64083C   25351.94857434  .00000194  00000-0  23624-3 0  9998
2 00959  90.0025 187.1425 0043599 117.3358   2.1705 13.62427293 25536
Epoch: 2025-12-17T22:45Z
TLE epoch observation values (Epoch: 2025-12-17T22:45:56.822Z)
Latitude
60.56492°
Longitude
-61.15096°
Altitude
1,005.026 km
Speed
7.371 km/s
True Right ascension
00h 28m 35s
True Declination
60° 25' 21"
Sunlit
Object was in daylight at epoch
Visualization orbit readout
Latitude
Unknown
Longitude
Unknown
Altitude
Unknown
Speed
Unknown
Apparent Right ascension
Unknown
Apparent Declination
Unknown
Sunlit
N/A
Visualization observer readout
Local Sidereal Time
04:37:02
Azimuth
Unknown
Elevation
Unknown
Doppler factor
Unknown
Orbital elements
Apogee altitude
1,056.188 km
Perigee altitude
991.643 km
Semi-major axis
7,402.052 km
Eccentricity
0.00436
Inclination
90.0025°
RAAN
187.1425°
Arg. of periapsis
117.3358°
True anomaly
2.18953°
Mean anomaly
2.1705°
Eccentric anomaly
2.18°
Mean motion
3.40812 °/min
Orbital period
105.63 mins
BSTAR
0.00023624
Loading maneuver chart data...
Computing Atmospheric mass density...

Documentation

Showing up to 5 results
|